Bradford, PA

4:54 AM EDT on October 14, 2019 (GMT -0400)
Bradford Regional

Weather History for KBFD - August, 2019

Change the Weather History Date:

Thursday, August 15, 2019

  Actual Average Record
Temperature  
Mean Temperature 69 °F 64 °F  
Max Temperature 80 °F 76 °F 87 °F (1959)
Min Temperature 58 °F 53 °F 38 °F (2013)
Degree Days  
Heating Degree Days 0 1  
Month to date heating degree days 11 7  
Since 1 June heating degree days 145 216  
Since 1 July heating degree days 23 71  
Cooling Degree Days 4 2  
Month to date cooling degree days 37 30  
Year to date cooling degree days 227 154  
Since 1 June cooling degree days 220 144  
Growing Degree Days 18 (Base 50)    
Moisture  
Dew Point 62 °F    
Average Humidity 78    
Maximum Humidity 100    
Minimum Humidity 56    
Precipitation  
Precipitation 1.12 in 0.13 in 1.83 in (1980)
Month to date precipitation 2.89 1.99  
Year to date precipitation 30.86 27.83  
Sea Level Pressure  
Sea Level Pressure 29.97 in    
Wind  
Wind Speed 4 mph (SE)    
Max Wind Speed 15 mph    
Max Gust Speed 18 mph    
Visibility 8 miles    
Events Fog , Rain , Thunderstorm    
T = Trace of Precipitation, MM = Missing Value Source: NWS Daily Summary

Daily Weather History Graph

Daily Weather History Graph

Search for Another Location

Airport or City:

Astronomy

Aug. 15, 2019 Rise Set
Actual Time 6:22 AM EDT 8:14 PM EDT
Civil Twilight 5:52 AM EDT 8:44 PM EDT
Nautical Twilight 5:15 AM EDT 9:21 PM EDT
Astronomical Twilight 4:36 AM EDT 10:00 PM EDT
Moon 8:42 PM EDT (8/15) 6:14 AM EDT (8/15)
Length of Visible Light 14h 52m
Length of Day
13h 52m
Full, 100% of the Moon is Illuminated
Aug 15
Full
Aug 23
Last Quarter
Aug 30
New
Sep 5
First Quarter
Sep 14
Full

Hourly Weather History & Observations

Time (EDT) Temp. Dew Point Humidity Pressure Visibility Wind Dir Wind Speed Gust Speed Precip Events Conditions
12:53 AM 62.1 °F 59.0 °F 90% 29.99 in 10.0 mi Calm Calm - N/A   Clear
1:53 AM 61.0 °F 59.0 °F 93% 29.99 in 10.0 mi Calm Calm - N/A   Clear
2:53 AM 61.0 °F 60.1 °F 97% 29.99 in 10.0 mi Calm Calm - N/A   Mostly Cloudy
3:53 AM 61.0 °F 59.0 °F 93% 29.99 in 10.0 mi Calm Calm - N/A   Overcast
4:53 AM 60.1 °F 57.0 °F 90% 29.98 in 10.0 mi Calm Calm - N/A   Scattered Clouds
5:53 AM 57.9 °F 55.9 °F 93% 29.98 in 10.0 mi Calm Calm - N/A   Partly Cloudy
6:53 AM 59.0 °F 55.9 °F 90% 29.99 in 10.0 mi Calm Calm - N/A   Clear
7:53 AM 61.0 °F 55.9 °F 83% 30.01 in 10.0 mi East 5.8 mph - N/A   Clear
8:53 AM 66.0 °F 57.0 °F 73% 30.00 in 10.0 mi ESE 9.2 mph - N/A   Clear
9:53 AM 70.0 °F 60.1 °F 71% 30.00 in 10.0 mi East 8.1 mph - N/A   Clear
10:53 AM 73.0 °F 62.1 °F 68% 30.00 in 10.0 mi SE 4.6 mph - N/A   Partly Cloudy
11:53 AM 75.9 °F 63.0 °F 64% 29.98 in 10.0 mi Variable 4.6 mph - N/A   Scattered Clouds
12:53 PM 77.0 °F 61.0 °F 58% 29.97 in 10.0 mi SSE 4.6 mph - N/A   Mostly Cloudy
1:53 PM 77.0 °F 63.0 °F 62% 29.96 in 10.0 mi Variable 4.6 mph - 0.00 in Rain Light Rain
2:53 PM 79.0 °F 63.0 °F 58% 29.92 in 10.0 mi Variable 4.6 mph - 0.00 in   Partly Cloudy
3:53 PM 79.0 °F 62.1 °F 56% 29.91 in 10.0 mi SW 5.8 mph - N/A   Partly Cloudy
4:53 PM 77.0 °F 64.0 °F 64% 29.91 in 10.0 mi SSW 8.1 mph - N/A   Mostly Cloudy
5:38 PM 72.0 °F 63.0 °F 73% 29.95 in 10.0 mi Calm Calm - 0.00 in Rain , Thunderstorm Light Thunderstorms and Rain
5:45 PM 69.1 °F 63.0 °F 81% 29.96 in 1.5 mi ENE 5.8 mph - 0.17 in Rain , Thunderstorm Heavy Thunderstorms and Rain
5:53 PM 66.9 °F 64.9 °F 93% 29.93 in 0.8 mi ENE 4.6 mph - 0.35 in Rain , Thunderstorm Heavy Thunderstorms and Rain
6:14 PM 68.0 °F 66.0 °F 93% 29.94 in 2.5 mi Variable 4.6 mph - 0.34 in Rain , Thunderstorm Light Thunderstorms and Rain
6:21 PM 66.9 °F 66.0 °F 97% 29.94 in 7.0 mi South 6.9 mph - 0.34 in Rain , Thunderstorm Light Thunderstorms and Rain
6:36 PM 68.0 °F 64.9 °F 90% 29.95 in 10.0 mi East 6.9 mph - 0.34 in Rain , Thunderstorm Light Thunderstorms and Rain
6:48 PM 66.2 °F 64.4 °F 94% 29.96 in 7.0 mi Variable 6.9 mph - 0.36 in Rain , Thunderstorm Light Thunderstorms and Rain
6:53 PM 64.9 °F 64.0 °F 97% 29.93 in 8.0 mi SSE 6.9 mph - 0.37 in Rain , Thunderstorm Light Thunderstorms and Rain
6:58 PM 64.9 °F 64.0 °F 97% 29.96 in 1.2 mi SE 4.6 mph - 0.11 in Rain , Thunderstorm Thunderstorms and Rain
7:06 PM 64.9 °F 64.0 °F 97% 29.97 in 0.5 mi East 3.5 mph - 0.22 in Fog , Rain , Thunderstorm Thunderstorms and Rain
7:12 PM 64.9 °F 64.0 °F 97% 29.96 in 2.5 mi East 5.8 mph - 0.22 in Rain , Thunderstorm Light Thunderstorms and Rain
7:18 PM 64.9 °F 64.0 °F 97% 29.97 in 8.0 mi West 4.6 mph - 0.22 in Thunderstorm Mostly Cloudy
7:27 PM 64.9 °F 63.0 °F 93% 29.97 in 10.0 mi ESE 10.4 mph - 0.22 in Rain , Thunderstorm Light Rain
7:37 PM 64.9 °F 63.0 °F 93% 29.97 in 10.0 mi ESE 8.1 mph - 0.22 in Thunderstorm Thunderstorm
7:53 PM 64.9 °F 64.0 °F 97% 29.95 in 9.0 mi ESE 4.6 mph - 0.22 in Rain , Thunderstorm Light Thunderstorms and Rain
8:15 PM 66.0 °F 64.0 °F 93% 29.99 in 1.8 mi Calm Calm - 0.08 in Rain , Thunderstorm Thunderstorms and Rain
8:28 PM 64.9 °F 64.0 °F 97% 29.99 in 3.0 mi Calm Calm - 0.16 in Rain , Thunderstorm Light Thunderstorms and Rain
8:39 PM 64.9 °F 64.0 °F 97% 29.99 in 10.0 mi SE 8.1 mph - 0.16 in Thunderstorm Mostly Cloudy
8:53 PM 64.9 °F 64.0 °F 97% 29.97 in 10.0 mi SSE 4.6 mph - 0.16 in Thunderstorm Mostly Cloudy
9:03 PM 64.9 °F 63.0 °F 93% 30.00 in 10.0 mi SSE 5.8 mph - N/A   Mostly Cloudy
9:53 PM 64.0 °F 62.1 °F 93% 29.98 in 10.0 mi Calm Calm - 0.00 in   Mostly Cloudy
10:53 PM 63.0 °F 62.1 °F 97% 29.97 in 8.0 mi SSE 3.5 mph - N/A   Clear
11:14 PM 64.0 °F 63.0 °F 96% 30.01 in 10.0 mi South 3.5 mph - N/A Thunderstorm Clear
11:53 PM 64.0 °F 62.1 °F 93% 29.96 in 10.0 mi South 4.6 mph - 0.02 in Rain , Thunderstorm Light Rain